Flag for Guyana Weather past 2 weeks in Linden, Guyana

Now
75 °F

Passing clouds.


Feels Like: 74 °F
Forecast: 74 / 87 °F
Wind: 2 mph from North

Location: Georgetown/Cheddi Jagan International Airport

Current Time: Aug 1, 2015 at 10:37:39 PM

Latest Report: Aug 1, 2015 at 10:00 PM


Visibility: N/A

Pressure: 29.92 "Hg

Humidity: 94%

Dew point: 73 °F

Location of LindenLocation

Historic Weather in Linden — Graph

°F

Linden temperature yesterday

Maximum temperature yesterday: 90 °F (at 2:00 PM)
Minimum temperature yesterday: 73 °F (at 5:00 AM)
Average temperature yesterday: 81 °F

Past Weeks' High & Low Weather Summary

 TemperatureHumidityPressure
High90 °F (Jul 19, 2:00 PM)100% (Jul 18, 4:00 AM)31.23 "Hg (Jul 18, 4:00 AM)
Low72 °F (Jul 20, 6:00 AM)59% (Jul 19, 3:00 PM)29.80 "Hg (Jul 28, 4:00 PM)
Average79 °F88%29.93 "Hg
* Reported Jul 17 9:00 PM — Aug 1 9:00 PM, Linden, Weather by CustomWeather, © 2015

Note: Actual official high and low records may vary slightly from our data, if they occured in-between our weather recording intervals... More about our weather records

Advertising

Linden weather history for previous 24 hours

 ConditionsComfort  
Time TempWeatherWind HumidityBarometerVisibility
9:00 PM
Sat, Aug 1
77 °FPassing clouds.2 mph94%29.89 "HgN/A
8:00 PM77 °FPassing clouds.2 mph94%29.89 "HgN/A
7:00 PM77 °FPassing clouds.5 mph94%29.86 "HgN/A
6:00 PM79 °FBroken clouds.7 mph89%29.86 "HgN/A
5:00 PM81 °FBroken clouds.9 mph84%29.83 "HgN/A
4:00 PM84 °FPartly sunny.12 mph79%29.83 "HgN/A
3:00 PM84 °FPartly sunny.9 mph79%29.83 "HgN/A
2:00 PM82 °FPartly sunny.7 mph79%29.86 "HgN/A
1:00 PM79 °FSprinkles. Partly sunny.5 mph89%29.89 "HgN/A
12:00 PM84 °FSprinkles. Partly sunny.7 mph79%29.92 "Hg6 mi
11:00 AM82 °FBroken clouds.5 mph79%29.92 "HgN/A
10:00 AM79 °FLots of rain. Partly sunny.7 mph89%29.95 "Hg2 mi
9:00 AM82 °FBroken clouds.No wind84%29.92 "HgN/A
8:00 AM81 °FScattered clouds.2 mph89%29.92 "HgN/A
7:00 AM75 °FScattered clouds.No wind94%29.92 "HgN/A
6:00 AM73 °FScattered clouds.No wind94%29.89 "HgN/A
5:00 AM73 °FPassing clouds.5 mph94%29.89 "HgN/A
4:00 AM73 °FPassing clouds.No wind100%29.86 "HgN/A
2:00 AM75 °FPartly cloudy.No wind100%29.89 "HgN/A
1:00 AM75 °FPartly cloudy.No wind100%29.92 "HgN/A
12:00 AM77 °FPassing clouds.No wind94%29.95 "HgN/A
11:00 PM
Fri, Jul 31
77 °FPassing clouds.No wind94%29.95 "HgN/A
10:00 PM77 °FClear.No wind94%29.95 "Hg10 mi
Weather by CustomWeather, © 2015

See weather overviewHow to use our weather pages